This is the latest recevied weather packets stored in our database for station/object SV9TNF-52. If no packets are shown the sender has not sent any weather packets the latest 10 day(s).
| Time | Temp. | Humidity | Pressure | Rain* | Wind** | Luminosity | Snow |
|---|---|---|---|---|---|---|---|
| 1788098541 | 30.56° C | 51% | 1020.7 hPa | 0 mm | 0.89 m/s, 36° | - | - |
| 1788098241 | 30.56° C | 51% | 1020.7 hPa | 0 mm | 1.34 m/s, 326° | - | - |
| 1788097941 | 30.56° C | 49% | 1020.7 hPa | 0 mm | 1.79 m/s, 58° | - | - |
| 1788097641 | 31.11° C | 47% | 1020.7 hPa | 0 mm | 1.79 m/s, 109° | - | - |
| 1788097341 | 31.67° C | 44% | 1020.7 hPa | 0 mm | 0.89 m/s, 12° | - | - |
| 1788097041 | 31.11° C | 47% | 1020.7 hPa | 0 mm | 0.45 m/s, 318° | - | - |
| 1788096741 | 31.11° C | 45% | 1020.7 hPa | 0 mm | 0.89 m/s, 80° | - | - |
| 1788096441 | 31.11° C | 46% | 1020.7 hPa | 0 mm | 1.34 m/s, 203° | - | - |
| 1788096141 | 31.11° C | 45% | 1020.7 hPa | 0 mm | 1.79 m/s, 27° | - | - |
| 1788095840 | 31.11° C | 46% | 1020.7 hPa | 0 mm | 1.79 m/s, 318° | - | - |
| 1788095540 | 30° C | 50% | 1020.7 hPa | 0 mm | 0.45 m/s, 28° | - | - |
| 1788095240 | 30.56° C | 51% | 1020.7 hPa | 0 mm | 2.24 m/s, 111° | - | - |
| 1788094940 | 30° C | 50% | 1020.7 hPa | 0 mm | 2.68 m/s, 107° | - | - |
| 1788094640 | 29.44° C | 52% | 1021 hPa | 0 mm | 5.81 m/s, 66° | - | - |
| 1788094340 | 30° C | 51% | 1021 hPa | 0 mm | 4.02 m/s, 196° | - | - |
| 1788094040 | 30° C | 51% | 1021 hPa | 0 mm | 4.47 m/s, 85° | - | - |
| 1788093740 | 30° C | 51% | 1021 hPa | 0 mm | 3.13 m/s, 90° | - | - |
| 1788093439 | 30° C | 53% | 1021 hPa | 0 mm | 1.79 m/s, 90° | - | - |
| 1788093140 | 30.56° C | 52% | 1021 hPa | 0 mm | 7.15 m/s, 4° | - | - |
| 1788092839 | 30.56° C | 51% | 1021 hPa | 0 mm | 6.26 m/s, 345° | - | - |
| 1788092539 | 29.44° C | 52% | 1021 hPa | 0 mm | 10.73 m/s, 34° | - | - |
| 1788092239 | 30° C | 52% | 1021 hPa | 0 mm | 6.26 m/s, 50° | - | - |
| 1788091939 | 30° C | 55% | 1021 hPa | 0 mm | 2.68 m/s, 0° | - | - |
| 1788091639 | 28.89° C | 59% | 1021.7 hPa | 0 mm | 10.28 m/s, 58° | - | - |
| 1788091339 | 29.44° C | 57% | 1021.7 hPa | 0 mm | 5.81 m/s, 76° | - | - |
* Rain latest hour (hover to see other rain measurements)
** Current wind speed in m/s (hover to see current wind gust speed)